Regional Weather Roundup
Issued by NWS Midland/Odessa, TX

Home | Current Version | Previous Version | Text Only | Print | Product List | Glossary On
Versions: 1 2 3 4 5 6 7 8 9 10 11 12 13 14 15 16 17 18 19 20 21 22 23 24 25 26
000
ASUS44 KMAF 250610
RWRMAF
MIDLAND AREA WEATHER ROUNDUP
NATIONAL WEATHER SERVICE MIDLAND TX
100 AM CDT MON MAY 25 2015

...IN SOUTHWEST TEXAS AND SOUTHEAST NEW MEXICO...

CITY           SKY/WX    TMP DP  RH WIND       PRES   REMARKS
ALPINE         MOCLDY    65  51  62 SE5       29.96S
ANDREWS        FAIR      64  48  56 S7        29.86F
ARTESIA        MOCLDY    64  27  24 W10       29.85S
BIG SPRING     CLEAR     74  52  46 SE13      29.87F
CARLSBAD       PTCLDY    59  35  40 W12       29.82F
DRYDEN           N/A     74  58  57 VRB5      29.82F
FORT STOCKTON  PTCLDY    70  55  59 SE18G26   29.83F
GUAD PASS      MOCLDY    65  17  15 W8        29.97F
HOBBS          CLEAR     55  39  54 CALM      29.88S
MARFA          MOCLDY    57  39  51 N6        29.93F
MIDLAND AIRPK  CLEAR     70  54  56 S12       29.85F
MIDLAND INTL   CLEAR     64  55  72 SE7       29.84F
ODESSA           N/A    N/A N/A N/A MISG      29.85F
PECOS          PTCLDY    59  49  70 CALM      29.80S
PRESIDIO       FAIR      76  32  19 NE8       29.75F
SEMINOLE       CLEAR     57  43  59 S7        29.87S
SNYDER         CLEAR     65  56  74 SE12      29.86S
WINK           CLEAR     66  42  41 SE10      29.80F
$$
...OTHER STATIONS IN TEXAS...

CITY           SKY/WX    TMP DP  RH WIND       PRES   REMARKS
ABILENE        CLEAR     69  66  90 SE15      29.85F
AMARILLO       PTCLDY    60  44  55 S10       29.82F
AUSTIN         PTCLDY    72  70  93 S9        29.91S
BROWNSVILLE    CLEAR     77  74  90 SE8       29.89F
CORPUS CHRISTI PTCLDY    76  73  91 SE10      29.89F
DALLAS FTW     PTCLDY    70  69  97 S12       29.87F
DEL RIO        PTCLDY    74  67  78 E9        29.81F
EL PASO        CLOUDY    72  26  18 W17G29    29.90R
HOUSTON INT    PTCLDY    73  70  90 S6        29.94S
LUBBOCK        PTCLDY    65  41  41 S14       29.84S
SAN ANGELO     CLEAR     71  62  73 S9        29.85F
SAN ANTONIO    MOCLDY    74  70  87 SE12      29.90F
WACO           LGT RAIN  72  68  87 S14       29.90S
WICHITA FALLS  NOT AVBL
$$
...OTHER LOCATIONS IN NEW MEXICO...

CITY           SKY/WX    TMP DP  RH WIND       PRES   REMARKS
ALAMAGORDO     MOCLDY    63  25  23 S3        29.90S
ALBUQUERQUE    CLOUDY    55  44  66 E5        30.02S
CANNON AFB     CLEAR     55  43  64 SW8       29.85S
CLOVIS         PTCLDY    54  39  58 SW9       29.85R
HOLLOMAN AFB   MOCLDY    65  30  26 N8        29.89R
ROSWELL        CLOUDY    65  32  29 SW10      29.84R
RUIDOSO        PTCLDY    54  32  43 NW15G25   30.05R
SANTA FE       MOCLDY    50  37  61 SW9       30.01S
TRUTH OR CONSE PTCLDY    60  36  40 NW14      29.97R
TUCUMCARI      PTCLDY    57  46  66 W12       29.84S
$$


USA.gov is the U.S. government's official web portal to all federal, state and local government web resources and services.